PEGASUS DEB, 24213

Orbit data source: Space-Track

PEGASUS DEB, 24213 is space debris in LEO originally from a launch on Thu, 19 May 1994 UTC launched from the Air Force Western Test Range (AFWTR). Debris objects in space refer to the collection of defunct objects orbiting the Earth. Examples of debris include non-operational satellites, rocket bodies, and fragments generated from explosions, collisions, or faulty payload assembly.

Loading next visibility...
Identifier
24213, 1994-029KL
Orbit
LEO
Country
Flag of USUS
Related business
Manufacturer
Unknown
Mission
Spacecraft
Bus & Motor
Unknown
Mass
Unknown
Launch date (UTC)
1994-05-19 (32 years ago)
Launch vehicle
Unknown
Launch site
Air Force Western Test Range (AFWTR)
Object type
Payload
Rocket body
Debris
Shape & HBR
Unknown shape, 0.1 m
Radar Cross Section
Medium (>0.1 m² and <1 m²)

Expand to show TLE details & history
Last TLE update: 17 hours ago

TLE from 17 hours ago
0 PEGASUS DEB
1 24213U 94029KL  26263.47299333  .00004129  00000-0  92514-3 0  9995
2 24213  81.4586  56.3664 0510177 153.3368 209.5042 13.98287005175419
Epoch: 2026-09-20T11:21Z
TLE epoch observation values (Epoch: 2026-09-20T11:21:06.623Z)
Latitude
-0.00002°
Longitude
-113.27787°
Altitude
1,230.16 km
Speed
7.075 km/s
True Right ascension
03h 45m 27s
True Declination
0° 00' 00"
Sunlit
Object was in daylight at epoch
Visualization orbit readout
Latitude
Unknown
Longitude
Unknown
Altitude
Unknown
Speed
Unknown
Apparent Right ascension
Unknown
Apparent Declination
Unknown
Sunlit
N/A
Visualization observer readout
Local Sidereal Time
21:08:07
Azimuth
Unknown
Elevation
Unknown
Doppler factor
Unknown
Orbital elements
Apogee altitude
1,268.057 km
Perigee altitude
525.746 km
Semi-major axis
7,275.039 km
Eccentricity
0.05102
Inclination
81.4586°
RAAN
56.3664°
Arg. of periapsis
153.3368°
True anomaly
206.77773°
Mean anomaly
209.5042°
Eccentric anomaly
208.12621°
Mean motion
3.49776 °/min
Orbital period
102.92 mins
BSTAR
0.00092514
Loading maneuver chart data...
Computing Atmospheric mass density...

Documentation

Showing up to 5 results
|